Starlink 11247

operational
NORAD ID: 60720 Int'l Des: 2024-152 Owner: SPXS Country: US Constellation: starlink
LEOCIRCULAR

Über Starlink 11247

Beschreibung wird geladen...

Live-Position

3D-Globus wird geladen...

Nächste Überflüge

Höhenverlauf

Altitude vs Time

uPlot chart will show altitude changes over time

Zweizeiliger Elementsatz

1 60720U 24152A 25352.91166864 -.00002497 00000-0 -15762-4 0 9996
2 60720 53.1603 154.7868 0001189 42.6826 317.4284 15.69696503 76148
Epoch: 18. Dez. 2025 • Age: 5 hours

Aktueller Status

Höhe 359.4 km
Geschwindigkeit 7.70 km/s
Subsatellitenpunkt 18.18°N, 41.61°E
Startdatum 28. Aug. 2024
Alter 1.3 years
Typ internet

Technische Details

Klassifizierung Payload
Masse 960.00 kg
Trockenmasse 910.00 kg
Gesamtmasse 960.00 kg
Länge 0.30 m
Durchmesser 4.10 m
Spannweite 29.00 m
Form Box + pan
Hersteller SPXS
Bus-Typ Starlink V2MD
Phasenstatus In Orbit
Besitzer/Staat SPXS/US

Große Konstellationen

Loading constellations...